Theta_e
352 351 347 338 321 322 316 320 328 325 326 331 333 332 329 331 326 313 342 346 347 346 353 358 363 362 361 362 362 361 362 362 360 362 361 361 361 361 359 358 359 359 359 359 359 360 360 361 361
349 346 341 335 321 313 316 326 324 327 333 335 335 334 330 326 335 337 339 347 349 350 354 357 363 364 361 363 363 363 362 362 362 362 361 360 361 360 360 359 357 359 359 358 360 360 360 360 361
346 344 333 327 321 312 315 324 327 332 335 334 332 335 332 328 337 338 345 349 350 351 353 356 362 363 362 362 362 363 363 362 361 362 362 360 361 359 360 360 359 359 359 359 359 359 360 360 359
342 341 336 319 317 321 324 327 332 330 333 334 332 326 335 340 338 343 348 350 349 351 353 360 363 362 362 363 362 362 362 362 361 361 362 361 360 360 360 360 360 359 359 359 358 359 359 358 359
345 337 323 319 320 321 327 331 333 329 331 332 333 327 331 340 345 346 348 350 348 350 355 357 365 365 363 362 362 363 362 362 362 362 362 361 360 360 360 360 359 359 359 358 358 357 357 359 359
333 334 319 316 318 324 329 333 332 331 332 332 330 330 330 342 343 345 347 348 352 354 357 358 364 365 365 363 363 363 363 362 362 362 361 360 360 360 359 360 359 359 359 358 358 356 357 357 357
329 327 320 321 321 322 328 335 332 331 330 330 335 327 331 338 343 344 346 348 352 355 354 355 357 360 364 363 363 362 363 363 362 362 361 360 360 360 360 360 360 358 358 358 357 356 356 356 356
335 330 322 320 320 318 327 333 336 332 331 339 338 326 325 336 342 344 346 346 350 352 354 352 353 355 355 357 364 363 363 363 362 363 362 361 361 360 359 362 361 358 358 358 357 357 357 356 357
338 320 319 322 318 321 330 329 337 339 334 336 338 335 336 341 341 341 341 344 348 350 350 351 352 352 353 354 359 363 363 363 362 361 361 359 350 351 353 358 360 358 358 358 358 358 358 357 358
328 317 322 328 327 327 330 330 333 333 331 332 334 337 339 340 338 337 337 340 342 344 345 350 351 351 353 357 355 353 356 354 353 355 353 349 349 349 352 357 360 358 358 356 357 358 358 354 348
326 320 327 329 332 335 332 333 337 333 328 332 331 334 337 337 336 337 337 339 341 344 344 347 350 351 351 353 352 352 352 351 350 349 349 349 349 349 351 349 349 349 354 349 347 347 347 347 347
316 324 327 328 335 335 332 334 330 334 334 338 337 337 336 336 333 335 335 338 342 343 342 346 351 349 345 350 352 352 351 350 350 350 349 343 342 346 345 347 347 345 347 347 345 344 346 345 346
317 321 325 328 335 336 335 327 330 331 338 340 339 337 335 335 335 336 336 338 342 340 342 344 349 347 345 350 349 349 348 350 347 348 349 343 342 344 348 346 345 346 349 346 344 344 344 344 346
320 320 319 321 334 335 330 329 329 333 339 337 337 335 335 336 335 334 334 335 339 340 342 345 345 346 346 347 346 346 346 347 349 344 347 347 348 345 345 343 339 341 346 345 345 343 345 343 344
318 310 310 328 332 329 331 325 327 335 339 335 334 334 335 335 336 333 334 333 337 341 343 342 343 345 345 345 345 346 346 350 347 342 341 347 350 349 343 344 344 344 344 346 344 346 346 343 342
307 303 298 313 330 331 328 319 330 337 336 332 333 333 334 334 335 335 332 336 340 341 340 344 347 347 345 346 348 345 344 348 350 346 347 349 352 349 346 343 343 346 345 344 340 344 346 340 341
301 297 300 303 326 328 325 322 328 335 335 332 332 332 333 333 333 336 332 338 339 337 342 341 346 343 343 348 345 344 345 348 350 351 350 350 351 351 347 345 345 344 345 346 338 342 339 338 339
296 297 297 299 306 324 321 323 328 334 333 332 332 332 331 333 333 335 334 339 338 338 340 341 344 342 343 346 345 345 345 347 350 350 350 352 351 351 348 346 346 347 342 344 343 338 338 337 337
301 299 299 304 308 305 321 323 326 329 329 331 331 331 331 332 336 335 334 339 338 338 336 339 341 340 343 344 342 341 342 345 350 350 352 353 352 349 346 348 349 348 340 340 341 342 333 335 337
302 299 298 303 307 317 320 320 324 327 329 331 332 332 332 332 334 336 332 337 337 337 337 338 342 341 344 344 343 343 342 343 350 350 353 353 352 344 346 347 348 344 340 343 342 338 333 333 333
300 297 299 299 312 319 318 314 316 322 329 332 335 334 334 332 333 334 332 337 337 336 338 340 343 342 345 345 345 344 345 344 344 344 347 353 354 350 352 349 349 346 345 343 341 339 335 330 334
293 302 303 301 296 291 310 303 314 318 322 329 331 330 332 333 335 336 332 333 336 336 340 342 344 343 346 344 342 342 343 340 341 343 346 350 355 353 352 350 351 347 346 345 345 346 336 333 332
301 305 301 300 294 291 295 292 300 317 316 323 329 329 332 333 335 336 332 333 337 338 338 344 345 344 346 345 341 343 339 340 343 344 346 349 350 353 353 352 351 350 345 344 346 347 343 336 337
306 300 297 294 292 287 291 292 296 309 315 320 329 331 332 331 334 336 337 334 335 339 338 345 344 343 345 345 340 340 340 339 343 344 347 348 349 351 352 353 352 349 347 346 346 347 346 346 344
299 292 286 286 285 285 291 291 293 313 319 320 325 330 332 331 333 335 334 333 334 336 338 342 344 342 343 344 345 340 342 339 342 343 347 347 348 350 351 354 350 349 350 350 349 348 347 346 344
296 292 287 282 283 286 293 288 295 309 322 323 324 329 332 330 331 333 334 333 335 336 338 340 343 342 343 344 344 345 342 342 342 345 347 348 350 352 353 355 351 351 351 351 350 348 349 350 347
296 292 295 288 286 286 290 295 301 303 313 322 321 325 329 332 333 334 337 335 336 337 337 340 342 342 342 342 342 343 347 342 342 345 347 349 349 350 351 354 351 352 351 351 349 347 346 349 348
293 296 290 287 283 282 288 290 293 299 307 316 320 322 326 333 333 335 337 339 339 338 339 340 342 342 344 343 342 342 343 347 341 344 344 348 347 348 349 354 351 350 352 351 350 347 347 347 346
291 289 288 288 288 284 283 288 299 303 310 313 319 324 325 331 333 335 338 339 339 338 339 341 341 341 344 345 343 341 341 344 344 342 344 345 345 347 349 354 352 352 352 350 349 347 346 347 346
293 289 286 283 283 287 288 290 304 308 311 318 322 322 326 331 334 335 337 338 338 336 336 340 342 342 342 346 345 342 340 342 345 345 342 344 345 348 352 354 353 353 354 350 349 347 348 348 346
Wind_Speed
8 6 2 1 1 1 3 2 3 8 7 7 12 5 8 5 1 3 11 11 16 13 9 9 11 12 14 13 14 14 14 14 14 12 13 12 12 11 11 12 11 12 12 11 12 12 12 11 12
7 8 2 2 2 1 4 3 7 7 8 17 12 11 6 4 6 11 10 16 17 13 8 7 12 13 15 14 14 14 14 12 13 13 13 12 11 11 11 13 12 12 12 13 13 12 13 11 11
9 7 1 2 1 3 4 5 12 16 14 9 7 6 5 4 14 12 14 18 16 12 9 10 15 14 14 13 13 12 12 12 13 13 12 12 12 10 12 11 12 13 12 12 13 13 12 11 11
5 2 2 2 5 5 6 12 4 10 8 9 15 13 6 11 11 11 19 19 15 12 10 14 16 15 14 14 13 13 13 13 13 12 13 12 11 11 13 12 13 12 12 12 13 12 12 12 11
2 0 2 3 4 5 9 4 3 8 5 12 6 9 5 5 15 21 20 17 16 12 10 11 15 15 15 15 15 14 14 13 13 13 13 12 11 12 11 11 11 11 12 12 12 12 12 13 10
1 0 2 2 4 9 6 7 9 7 12 12 14 11 4 18 20 18 17 17 15 14 9 10 17 16 15 16 14 14 14 13 13 12 12 11 13 12 11 12 11 10 11 11 11 10 10 11 10
1 2 3 1 6 3 1 3 7 16 14 8 13 9 10 18 17 17 17 16 15 13 10 7 8 14 16 16 15 14 14 14 13 13 12 12 12 11 11 12 10 10 10 10 9 8 9 10 10
3 2 1 9 3 4 3 7 8 17 12 16 12 8 15 16 16 20 17 15 13 12 10 6 6 6 6 8 15 14 15 14 13 12 11 12 11 12 11 8 9 9 9 10 9 9 10 9 8
5 1 2 4 4 3 1 8 2 7 18 5 3 12 23 22 19 19 16 13 11 9 10 7 7 6 6 6 9 12 15 14 12 11 12 9 4 5 8 7 9 9 9 8 8 9 8 10 9
5 4 4 2 7 4 2 2 8 3 15 8 9 17 20 21 23 20 18 15 13 13 10 9 8 7 6 7 6 5 7 4 4 5 6 4 4 3 5 7 9 8 7 6 5 6 9 7 3
6 8 7 6 6 10 3 6 11 6 11 14 24 23 21 19 22 20 18 20 18 15 11 11 10 9 7 6 4 2 2 3 3 5 4 4 3 2 3 3 2 2 6 2 3 3 2 3 2
6 15 16 11 7 8 8 12 7 8 7 7 26 27 22 20 19 19 18 16 16 15 15 13 12 9 5 4 5 5 3 3 3 4 5 4 3 3 4 3 3 2 1 1 2 1 2 3 4
12 16 13 12 10 13 13 11 16 11 8 10 16 21 21 18 14 19 18 17 17 16 14 13 11 9 6 6 4 3 4 3 3 4 6 5 4 3 4 4 3 2 1 1 2 2 2 3 4
6 9 11 9 16 13 15 10 9 7 4 17 16 15 15 15 14 19 18 16 17 15 16 12 11 8 8 6 6 5 4 5 4 4 5 6 5 4 4 4 3 3 3 3 3 3 1 3 4
10 6 9 13 15 8 20 9 2 1 7 16 16 13 11 10 8 19 17 17 17 16 16 14 11 8 11 8 5 5 5 7 6 4 6 6 4 5 5 3 3 3 1 4 4 5 1 2 1
5 3 4 6 14 12 3 4 10 9 12 11 13 15 12 8 7 7 16 18 18 17 15 13 13 12 9 7 6 5 3 6 5 4 5 6 5 6 5 4 3 4 2 3 2 4 2 2 3
7 3 6 10 17 12 4 7 13 13 21 18 18 17 14 9 8 5 15 20 18 17 15 10 10 10 9 5 5 5 5 4 5 4 4 6 5 6 5 4 2 4 4 4 4 2 3 2 1
3 3 5 5 7 10 8 7 18 15 19 20 21 18 16 14 11 8 15 19 18 17 14 12 10 8 8 5 5 3 3 2 3 4 4 6 5 6 5 3 3 3 3 3 3 2 1 2 3
4 3 9 17 13 4 16 18 22 17 11 13 13 12 18 15 8 8 15 19 19 17 14 13 10 7 6 3 3 3 3 3 3 4 6 6 6 5 6 4 3 3 4 1 4 3 2 2 2
7 7 12 13 4 6 6 8 12 15 14 18 21 18 17 13 13 7 17 17 19 18 15 12 13 10 6 5 3 3 4 2 3 4 5 5 6 5 5 5 4 3 3 4 4 4 2 0 1
6 6 10 11 2 7 12 5 5 4 6 7 15 23 18 20 19 11 19 18 18 18 16 15 13 12 8 7 3 2 3 3 2 1 3 4 7 6 6 6 5 5 3 4 4 4 4 2 1
6 8 11 8 4 3 4 4 8 11 6 13 16 14 16 16 19 14 17 18 18 18 15 15 13 12 8 8 5 5 4 4 4 4 3 4 6 7 6 6 5 5 4 5 4 3 2 3 1
13 12 8 2 3 3 3 5 4 14 12 19 19 23 14 15 20 20 18 21 19 17 15 14 15 13 11 9 7 6 4 4 3 3 6 5 5 7 6 7 7 6 4 4 5 4 4 3 3
12 6 7 5 4 3 5 6 3 8 26 18 20 18 21 20 20 20 16 21 20 18 16 15 16 15 11 10 7 8 7 6 4 6 6 4 4 4 6 6 6 6 6 5 4 3 6 4 3
3 8 4 5 4 6 5 4 9 14 11 21 27 24 20 16 17 19 17 21 20 21 19 16 17 16 15 13 10 8 9 7 7 7 8 7 4 3 6 6 6 5 6 6 5 4 4 4 3
3 9 7 6 3 4 7 3 6 10 17 17 21 22 20 16 9 14 16 19 22 22 21 20 19 17 17 16 13 8 9 6 5 6 6 8 8 8 7 9 6 6 6 6 6 4 4 3 3
4 2 6 5 1 5 4 9 10 2 8 10 13 15 19 16 17 20 9 13 19 20 22 22 21 19 18 18 14 11 9 8 7 8 5 6 8 5 7 8 9 7 7 6 6 4 5 5 4
9 5 5 4 3 3 5 4 6 12 15 6 7 13 12 12 18 18 17 13 9 17 15 16 18 21 19 17 15 12 11 8 7 7 7 7 7 6 7 9 9 7 6 6 6 5 4 6 4
9 10 7 1 4 5 2 6 3 6 5 10 9 17 18 17 14 16 12 9 11 10 18 19 17 19 17 17 16 15 13 10 6 7 8 7 5 8 8 11 10 9 8 7 6 6 6 6 5
4 6 5 5 8 2 4 5 5 6 8 12 18 8 6 12 14 9 16 20 18 13 11 19 19 18 18 17 16 16 14 13 9 8 8 7 7 6 7 10 11 11 10 8 8 8 6 7 6
Wind_Direction
173 161 188 195 324 141 194 286 296 174 143 147 162 132 115 40 95 178 131 143 132 142 159 162 155 138 132 123 122 126 130 130 124 125 123 123 124 120 118 113 107 122 113 118 115 110 106 103 106
163 165 227 267 255 287 37 307 179 131 114 103 94 109 67 81 81 123 125 139 134 140 150 145 140 138 134 129 131 136 141 134 134 132 129 127 123 118 112 114 112 111 112 116 110 113 105 102 104
169 220 159 233 232 133 164 248 138 121 135 123 113 53 71 101 114 144 134 133 131 139 140 146 143 141 138 137 136 136 131 127 126 132 131 128 122 118 113 110 112 112 111 111 115 112 108 107 108
171 202 313 287 280 202 204 204 215 111 87 65 106 88 100 119 148 136 138 132 129 139 140 145 145 143 142 140 138 138 135 133 129 130 135 127 127 129 120 119 111 116 113 109 111 115 113 115 109
293 264 248 250 274 263 225 165 273 126 63 118 128 111 67 75 121 137 134 133 131 136 142 143 144 138 138 138 138 132 135 131 134 134 132 131 123 120 118 116 113 115 116 116 119 121 123 123 114
224 170 230 129 262 268 221 191 222 131 120 115 100 108 79 130 139 142 129 132 135 134 135 142 138 141 138 133 132 136 135 134 134 131 131 127 126 121 125 122 125 118 119 124 124 122 125 121 102
204 210 258 215 181 345 313 343 183 140 137 116 131 103 133 143 148 137 134 133 136 132 130 132 139 139 140 133 139 138 134 133 135 133 133 133 128 129 131 125 121 122 120 118 116 122 116 99 95
210 178 9 336 121 249 311 321 171 139 142 133 134 155 161 161 156 132 132 133 135 133 134 132 128 117 136 142 144 142 138 137 137 137 131 134 135 129 130 124 120 118 111 111 113 107 100 97 93
230 325 347 188 151 321 218 353 281 57 140 158 187 148 155 153 135 133 128 132 130 137 139 140 137 134 137 139 148 146 144 143 147 139 137 121 99 126 125 143 127 121 111 116 125 116 105 96 92
201 181 218 257 133 91 20 201 329 59 165 131 111 140 152 149 145 140 144 148 150 151 155 156 154 150 153 156 133 148 157 141 147 143 132 107 121 150 138 140 128 119 113 109 123 104 93 80 73
203 234 205 190 148 136 262 72 354 340 207 160 152 159 160 158 151 150 154 159 164 160 160 169 162 163 168 151 144 177 156 148 148 154 163 145 141 129 115 81 58 66 102 57 68 56 74 111 148
276 248 243 239 187 129 120 100 3 291 315 182 162 163 160 163 155 158 159 160 157 163 164 168 172 168 172 144 166 176 163 171 164 174 155 121 122 133 114 124 169 127 210 115 52 127 110 81 156
246 264 267 258 149 120 135 137 169 227 257 165 181 166 163 164 158 164 170 164 164 164 162 173 175 172 154 157 162 148 178 171 166 164 143 141 146 156 159 153 157 143 233 252 262 287 8 360 11
276 287 284 275 142 148 124 127 162 206 195 151 179 171 169 171 159 172 172 161 169 165 165 170 185 164 150 167 171 176 178 165 157 173 153 146 147 155 160 165 181 170 203 229 258 255 183 24 2
255 281 306 129 145 136 121 131 134 133 188 156 175 171 176 184 174 173 177 161 165 169 161 175 174 150 159 168 168 181 175 160 171 175 174 139 132 158 161 159 180 202 190 224 235 266 350 52 337
354 36 342 148 169 159 166 150 135 126 131 153 177 180 184 205 203 191 157 159 164 158 160 166 162 157 156 156 167 139 140 156 173 158 161 141 154 144 153 156 190 155 179 199 231 176 222 215 125
14 281 303 316 178 152 161 134 174 178 158 172 178 193 185 202 211 178 150 157 159 156 155 152 155 156 140 131 120 139 143 178 163 154 162 162 158 154 145 155 150 167 131 167 155 169 152 166 197
265 307 324 256 308 132 163 170 171 182 191 180 170 188 194 203 209 168 153 159 159 159 157 148 156 155 140 131 117 125 134 124 145 166 164 150 152 155 131 147 169 124 127 138 110 144 176 169 175
244 278 279 285 287 246 198 164 181 176 190 185 180 187 202 200 207 174 159 162 160 163 157 157 151 169 141 133 141 137 153 152 187 187 165 157 159 149 137 143 158 153 132 148 149 90 150 61 187
260 256 276 287 298 103 125 170 171 180 192 182 174 175 201 202 210 185 167 168 165 166 167 163 168 162 163 150 162 147 142 201 175 182 166 167 152 162 156 156 147 145 138 154 134 129 133 27 36
252 220 257 252 69 42 106 81 128 183 186 184 189 189 192 204 203 192 177 171 170 169 170 170 171 166 168 165 131 85 73 61 60 195 197 193 171 177 162 167 157 168 162 156 164 155 142 149 326
267 224 252 274 80 266 178 157 178 170 172 193 211 201 198 218 204 202 177 172 177 176 171 168 167 168 171 168 158 156 169 159 203 189 186 188 177 177 174 159 171 169 166 164 189 140 164 119 152
239 252 232 275 85 99 341 87 283 143 201 207 202 215 206 205 197 199 177 178 179 174 172 171 168 168 173 184 183 185 183 182 185 183 187 188 188 184 177 167 166 171 180 178 182 164 145 158 148
233 247 27 48 81 58 209 136 239 188 218 198 204 212 201 205 203 198 183 177 177 176 175 170 170 174 167 184 190 189 199 199 167 187 196 194 195 188 195 181 170 172 170 175 195 164 159 172 169
106 64 360 352 0 221 177 71 234 225 226 184 193 202 204 212 210 201 184 174 178 177 179 175 174 177 175 182 197 194 208 202 200 185 193 187 187 181 204 179 184 177 184 182 173 164 172 182 164
119 148 156 191 206 264 354 219 247 220 228 206 195 187 192 197 183 194 186 176 183 182 181 179 179 180 180 185 197 192 203 211 199 195 197 196 197 199 185 188 186 186 188 182 174 166 182 189 191
293 86 186 116 72 80 261 311 314 69 279 247 179 172 182 176 192 181 154 175 181 187 186 185 183 183 183 189 193 206 203 200 200 211 195 206 203 191 183 183 187 190 190 185 177 180 184 192 214
89 288 7 17 112 171 297 323 247 3 347 306 183 215 181 172 163 167 165 166 165 179 188 199 189 184 182 189 194 202 214 212 204 196 209 209 207 187 185 188 191 188 192 193 188 190 197 189 211
356 13 359 95 126 145 151 265 78 88 26 360 273 216 186 196 188 170 152 165 164 164 179 186 195 192 185 188 194 198 207 221 206 204 211 211 209 200 194 195 187 187 191 196 196 202 203 207 219
127 80 50 53 315 325 132 276 8 29 1 13 19 256 191 189 189 216 181 181 179 178 171 182 187 194 192 189 192 199 200 206 216 215 213 207 202 210 195 191 188 188 194 192 204 205 201 205 216